Time,TemperatureF,DewpointF,PressureIn,WindDirection,WindDirectionDegrees,WindSpeedMPH,WindSpeedGustMPH,Humidity,HourlyPrecipIn,Conditions,Clouds,dailyrainin,SoftwareType,DateUTC
2013-02-12 00:00:00,26.1,19.8,29.74,North,0,12.5,15.4,77,0.00,,,0.04,WUHU21636XXSP,2013-02-12 05:00:00,
2013-02-12 00:05:00,26.1,19.4,29.74,North,0,10.5,16.7,76,0.00,,,0.00,WUHU21636XXSP,2013-02-12 05:05:00,
2013-02-12 00:10:00,25.9,18.9,29.74,North,0,12.5,17.0,75,0.00,,,0.00,WUHU21636XXSP,2013-02-12 05:10:00,
2013-02-12 00:15:00,25.3,18.3,29.74,North,0,12.3,23.4,75,0.00,,,0.00,WUHU21636XXSP,2013-02-12 05:15:00,
2013-02-12 00:20:00,24.8,18.0,29.74,North,0,11.6,23.4,75,0.00,,,0.00,WUHU21636XXSP,2013-02-12 05:20:00,
2013-02-12 00:25:00,24.6,17.8,29.75,North,0,10.2,21.0,75,0.00,,,0.00,WUHU21636XXSP,2013-02-12 05:25:00,
2013-02-12 00:30:00,24.6,18.3,29.75,North,0,10.0,18.5,77,0.00,,,0.00,WUHU21636XXSP,2013-02-12 05:30:00,
2013-02-12 00:35:00,24.8,18.5,29.75,North,0,12.3,19.9,77,0.00,,,0.00,WUHU21636XXSP,2013-02-12 05:35:00,
2013-02-12 00:40:00,25.0,18.7,29.75,North,0,8.0,19.9,77,0.00,,,0.00,WUHU21636XXSP,2013-02-12 05:40:00,
2013-02-12 00:45:00,25.0,19.0,29.75,North,0,7.8,19.4,78,0.00,,,0.00,WUHU21636XXSP,2013-02-12 05:45:00,
2013-02-12 00:50:00,25.2,19.2,29.76,North,0,6.7,23.4,78,0.00,,,0.00,WUHU21636XXSP,2013-02-12 05:50:00,
2013-02-12 00:55:00,25.0,19.0,29.76,North,0,8.9,23.4,78,0.00,,,0.00,WUHU21636XXSP,2013-02-12 05:55:00,
2013-02-12 01:00:00,25.2,18.9,29.76,North,0,10.7,19.2,77,0.00,,,0.00,WUHU21636XXSP,2013-02-12 06:00:00,
2013-02-12 01:05:00,25.2,18.9,29.76,North,0,11.8,19.0,77,0.00,,,0.00,WUHU21636XXSP,2013-02-12 06:05:00,
2013-02-12 01:10:00,25.2,18.9,29.77,North,0,8.9,19.2,77,0.00,,,0.00,WUHU21636XXSP,2013-02-12 06:10:00,
2013-02-12 01:15:00,25.0,18.3,29.77,North,0,9.6,19.2,76,0.00,,,0.00,WUHU21636XXSP,2013-02-12 06:15:00,
2013-02-12 01:20:00,25.0,18.3,29.77,North,0,11.4,21.2,76,0.00,,,0.00,WUHU21636XXSP,2013-02-12 06:20:00,
2013-02-12 01:25:00,24.6,17.8,29.77,North,0,14.9,25.0,75,0.00,,,0.00,WUHU21636XXSP,2013-02-12 06:25:00,
2013-02-12 01:30:00,24.4,17.6,29.77,NW,315,18.1,26.8,75,0.00,,,0.00,WUHU21636XXSP,2013-02-12 06:30:00,
2013-02-12 01:35:00,24.1,17.4,29.77,NW,315,13.1,26.8,76,0.00,,,0.00,WUHU21636XXSP,2013-02-12 06:35:00,
2013-02-12 01:40:00,23.9,17.4,29.77,NW,315,14.7,30.4,76,0.00,,,0.00,WUHU21636XXSP,2013-02-12 06:40:00,
2013-02-12 01:45:00,24.1,17.2,29.77,NW,315,15.2,30.4,75,0.00,,,0.00,WUHU21636XXSP,2013-02-12 06:45:00,
2013-02-12 01:50:00,24.1,17.2,29.78,NW,315,12.0,28.1,75,0.00,,,0.00,WUHU21636XXSP,2013-02-12 06:50:00,
2013-02-12 01:55:00,24.1,17.2,29.78,NNW,337,14.3,25.0,75,0.00,,,0.00,WUHU21636XXSP,2013-02-12 06:55:00,
2013-02-12 02:00:00,24.1,17.2,29.78,NNW,337,12.7,23.7,75,0.00,,,0.00,WUHU21636XXSP,2013-02-12 07:00:00,
2013-02-12 02:05:00,24.1,17.2,29.78,NW,315,12.0,22.1,75,0.00,,,0.00,WUHU21636XXSP,2013-02-12 07:05:00,
2013-02-12 02:10:00,24.1,17.2,29.79,NW,315,8.9,21.2,75,0.00,,,0.00,WUHU21636XXSP,2013-02-12 07:10:00,
2013-02-12 02:15:00,24.3,17.4,29.79,NW,315,12.3,19.0,75,0.00,,,0.00,WUHU21636XXSP,2013-02-12 07:15:00,
2013-02-12 02:20:00,24.4,17.6,29.79,NW,315,11.6,17.6,75,0.00,,,0.00,WUHU21636XXSP,2013-02-12 07:20:00,
2013-02-12 02:25:00,24.4,17.6,29.79,NW,315,10.0,17.4,75,0.00,,,0.00,WUHU21636XXSP,2013-02-12 07:25:00,
2013-02-12 02:30:00,24.4,17.6,29.80,NW,315,10.7,15.6,75,0.00,,,0.00,WUHU21636XXSP,2013-02-12 07:30:00,
2013-02-12 02:35:00,24.4,17.6,29.80,NW,315,12.0,19.2,75,0.00,,,0.00,WUHU21636XXSP,2013-02-12 07:35:00,
2013-02-12 02:40:00,24.4,17.2,29.80,NW,315,8.7,19.2,74,0.00,,,0.00,WUHU21636XXSP,2013-02-12 07:40:00,
2013-02-12 02:45:00,24.4,17.2,29.80,West,270,11.8,19.0,74,0.00,,,0.00,WUHU21636XXSP,2013-02-12 07:45:00,
2013-02-12 02:50:00,24.3,17.1,29.80,NW,315,11.6,15.8,74,0.00,,,0.00,WUHU21636XXSP,2013-02-12 07:50:00,
2013-02-12 02:55:00,24.1,17.2,29.80,NW,315,6.7,30.8,75,0.00,,,0.00,WUHU21636XXSP,2013-02-12 07:55:00,
2013-02-12 03:00:00,24.1,17.2,29.81,NW,315,12.5,30.8,75,0.00,,,0.00,WUHU21636XXSP,2013-02-12 08:00:00,
2013-02-12 03:05:00,23.9,17.1,29.81,NW,315,14.3,23.4,75,0.00,,,0.00,WUHU21636XXSP,2013-02-12 08:05:00,
2013-02-12 03:10:00,23.9,17.1,29.81,NW,315,9.8,23.4,75,0.00,,,0.00,WUHU21636XXSP,2013-02-12 08:10:00,
2013-02-12 03:15:00,23.9,17.4,29.82,NNW,337,9.6,20.8,76,0.00,,,0.00,WUHU21636XXSP,2013-02-12 08:15:00,
2013-02-12 03:20:00,23.9,17.4,29.82,WNW,292,8.7,20.8,76,0.00,,,0.00,WUHU21636XXSP,2013-02-12 08:20:00,
2013-02-12 03:25:00,23.9,17.6,29.82,NW,315,7.6,18.3,77,0.00,,,0.00,WUHU21636XXSP,2013-02-12 08:25:00,
2013-02-12 03:30:00,23.9,18.0,29.82,NW,315,7.3,14.7,78,0.00,,,0.00,WUHU21636XXSP,2013-02-12 08:30:00,
2013-02-12 03:35:00,23.9,18.3,29.82,NW,315,7.1,13.4,79,0.00,,,0.00,WUHU21636XXSP,2013-02-12 08:35:00,
2013-02-12 03:40:00,23.9,18.7,29.82,NW,315,6.9,17.0,80,0.00,,,0.00,WUHU21636XXSP,2013-02-12 08:40:00,
2013-02-12 03:45:00,23.7,18.7,29.82,WNW,292,11.8,17.4,81,0.00,,,0.00,WUHU21636XXSP,2013-02-12 08:45:00,
2013-02-12 03:50:00,23.7,19.0,29.81,WNW,292,10.9,17.4,82,0.00,,,0.00,WUHU21636XXSP,2013-02-12 08:50:00,
2013-02-12 03:55:00,23.5,19.0,29.82,NW,315,8.2,13.8,83,0.00,,,0.00,WUHU21636XXSP,2013-02-12 08:55:00,
2013-02-12 04:00:00,23.5,18.9,29.82,NW,315,10.7,14.3,82,0.00,,,0.00,WUHU21636XXSP,2013-02-12 09:00:00,
2013-02-12 04:05:00,23.7,18.7,29.82,NW,315,8.2,15.2,81,0.00,,,0.00,WUHU21636XXSP,2013-02-12 09:05:00,
2013-02-12 04:10:00,23.7,18.7,29.82,NW,315,7.8,15.2,81,0.00,,,0.00,WUHU21636XXSP,2013-02-12 09:10:00,
2013-02-12 04:15:00,23.7,18.7,29.82,NW,315,4.2,13.6,81,0.00,,,0.00,WUHU21636XXSP,2013-02-12 09:15:00,
2013-02-12 04:20:00,23.7,18.7,29.82,NW,315,5.8,13.6,81,0.00,,,0.00,WUHU21636XXSP,2013-02-12 09:20:00,
2013-02-12 04:25:00,23.7,18.7,29.82,NW,315,9.3,13.6,81,0.00,,,0.00,WUHU21636XXSP,2013-02-12 09:25:00,
2013-02-12 04:30:00,23.7,18.7,29.82,WNW,292,8.5,12.5,81,0.00,,,0.00,WUHU21636XXSP,2013-02-12 09:30:00,
2013-02-12 04:35:00,23.7,18.7,29.82,NW,315,7.3,16.5,81,0.00,,,0.00,WUHU21636XXSP,2013-02-12 09:35:00,
2013-02-12 04:40:00,23.7,18.7,29.82,NW,315,8.7,16.5,81,0.00,,,0.00,WUHU21636XXSP,2013-02-12 09:40:00,
2013-02-12 04:45:00,23.7,19.0,29.83,NW,315,7.3,21.2,82,0.00,,,0.00,WUHU21636XXSP,2013-02-12 09:45:00,
2013-02-12 04:50:00,23.7,19.0,29.83,WNW,292,3.8,21.2,82,0.00,,,0.00,WUHU21636XXSP,2013-02-12 09:50:00,
2013-02-12 04:55:00,23.7,18.7,29.83,NW,315,4.9,8.5,81,0.00,,,0.00,WUHU21636XXSP,2013-02-12 09:55:00,
2013-02-12 05:00:00,23.9,18.7,29.83,NW,315,9.6,12.3,80,0.00,,,0.00,WUHU21636XXSP,2013-02-12 10:00:00,
2013-02-12 05:05:00,23.9,18.7,29.83,NW,315,5.8,15.4,80,0.00,,,0.00,WUHU21636XXSP,2013-02-12 10:05:00,
2013-02-12 05:10:00,23.9,18.7,29.83,NW,315,8.9,15.4,80,0.00,,,0.00,WUHU21636XXSP,2013-02-12 10:10:00,
2013-02-12 05:16:00,24.1,18.5,29.83,WNW,292,8.0,17.2,79,0.00,,,0.00,WUHU21636XXSP,2013-02-12 10:16:00,
2013-02-12 05:21:00,23.9,18.7,29.83,NW,315,8.0,17.2,80,0.00,,,0.00,WUHU21636XXSP,2013-02-12 10:21:00,
2013-02-12 05:26:00,24.1,18.9,29.84,WNW,292,7.8,11.4,80,0.00,,,0.00,WUHU21636XXSP,2013-02-12 10:26:00,
2013-02-12 05:31:00,23.9,18.7,29.83,West,270,4.4,12.0,80,0.00,,,0.00,WUHU21636XXSP,2013-02-12 10:31:00,
2013-02-12 05:36:00,24.1,18.5,29.84,NW,315,8.7,12.7,79,0.00,,,0.00,WUHU21636XXSP,2013-02-12 10:36:00,
2013-02-12 05:42:00,24.3,18.7,29.84,WNW,292,4.9,21.6,79,0.00,,,0.00,WUHU21636XXSP,2013-02-12 10:42:00,
2013-02-12 05:47:00,24.4,18.5,29.84,NW,315,10.2,21.6,78,0.00,,,0.00,WUHU21636XXSP,2013-02-12 10:47:00,
2013-02-12 05:52:00,24.4,18.5,29.84,WNW,292,8.5,17.4,78,0.00,,,0.00,WUHU21636XXSP,2013-02-12 10:52:00,
2013-02-12 05:57:00,24.4,18.5,29.85,NW,315,6.9,15.6,78,0.00,,,0.00,WUHU21636XXSP,2013-02-12 10:57:00,
2013-02-12 06:02:00,24.4,18.5,29.85,NW,315,5.3,14.9,78,0.00,,,0.00,WUHU21636XXSP,2013-02-12 11:02:00,
2013-02-12 06:07:00,24.4,18.9,29.86,WNW,292,5.8,16.5,79,0.00,,,0.00,WUHU21636XXSP,2013-02-12 11:07:00,
2013-02-12 06:12:00,24.4,18.9,29.86,WNW,292,1.1,29.3,79,0.00,,,0.00,WUHU21636XXSP,2013-02-12 11:12:00,
2013-02-12 06:17:00,24.4,18.9,29.86,WNW,292,5.1,29.3,79,0.00,,,0.00,WUHU21636XXSP,2013-02-12 11:17:00,
2013-02-12 06:22:00,24.4,18.9,29.86,WNW,292,2.4,20.1,80,0.00,,,0.00,WUHU21636XXSP,2013-02-12 11:22:00,
2013-02-12 06:27:00,24.4,19.2,29.86,WNW,292,5.5,19.2,80,0.00,,,0.00,WUHU21636XXSP,2013-02-12 11:27:00,
2013-02-12 06:32:00,24.4,18.9,29.86,NW,315,10.5,13.6,79,0.00,,,0.00,WUHU21636XXSP,2013-02-12 11:32:00,
2013-02-12 06:37:00,24.4,19.2,29.87,NW,315,7.3,15.2,80,0.00,,,0.00,WUHU21636XXSP,2013-02-12 11:37:00,
2013-02-12 06:42:00,24.4,19.2,29.86,NW,315,7.8,15.2,80,0.00,,,0.00,WUHU21636XXSP,2013-02-12 11:42:00,
2013-02-12 06:47:00,24.4,19.2,29.86,NW,315,3.8,15.6,80,0.00,,,0.00,WUHU21636XXSP,2013-02-12 11:47:00,
2013-02-12 06:52:00,24.4,19.2,29.86,WNW,292,6.0,15.6,80,0.00,,,0.00,WUHU21636XXSP,2013-02-12 11:52:00,
2013-02-12 06:57:00,24.4,19.2,29.87,West,270,7.1,14.9,81,0.00,,,0.00,WUHU21636XXSP,2013-02-12 11:57:00,
2013-02-12 07:02:00,24.4,19.4,29.87,NW,315,3.5,14.9,81,0.00,,,0.00,WUHU21636XXSP,2013-02-12 12:02:00,
2013-02-12 07:07:00,24.4,19.4,29.87,NW,315,8.5,21.0,81,0.00,,,0.00,WUHU21636XXSP,2013-02-12 12:07:00,
2013-02-12 07:12:00,24.4,19.4,29.87,WNW,292,3.1,21.0,82,0.00,,,0.00,WUHU21636XXSP,2013-02-12 12:12:00,
2013-02-12 07:17:00,24.3,19.8,29.87,NNW,337,5.5,8.0,83,0.00,,,0.00,WUHU21636XXSP,2013-02-12 12:17:00,
2013-02-12 07:22:00,24.3,19.8,29.88,NW,315,4.9,8.5,83,0.00,,,0.00,WUHU21636XXSP,2013-02-12 12:22:00,
2013-02-12 07:27:00,24.3,20.1,29.88,West,270,0.4,12.3,84,0.00,,,0.00,WUHU21636XXSP,2013-02-12 12:27:00,
2013-02-12 07:32:00,24.3,20.1,29.88,WNW,292,0.6,12.3,85,0.00,,,0.00,WUHU21636XXSP,2013-02-12 12:32:00,
2013-02-12 07:37:00,24.3,20.3,29.88,NW,315,6.0,24.1,85,0.00,,,0.00,WUHU21636XXSP,2013-02-12 12:37:00,
2013-02-12 07:42:00,24.3,20.3,29.88,WNW,292,4.6,24.1,85,0.00,,,0.00,WUHU21636XXSP,2013-02-12 12:42:00,
2013-02-12 07:47:00,24.4,20.5,29.88,WNW,292,0.6,13.6,85,0.00,,,0.00,WUHU21636XXSP,2013-02-12 12:47:00,
2013-02-12 07:52:00,24.4,20.5,29.88,WNW,292,6.4,10.9,85,0.00,,,0.00,WUHU21636XXSP,2013-02-12 12:52:00,
2013-02-12 07:57:00,24.4,20.5,29.88,West,270,4.4,8.7,85,0.00,,,0.00,WUHU21636XXSP,2013-02-12 12:57:00,
2013-02-12 08:02:00,24.4,20.5,29.89,NW,315,5.8,15.6,85,0.00,,,0.00,WUHU21636XXSP,2013-02-12 13:02:00,
2013-02-12 08:07:00,24.4,20.3,29.89,NW,315,5.5,15.6,84,0.00,,,0.00,WUHU21636XXSP,2013-02-12 13:07:00,
2013-02-12 08:12:00,24.4,20.3,29.89,WNW,292,2.9,14.0,84,0.00,,,0.00,WUHU21636XXSP,2013-02-12 13:12:00,
2013-02-12 08:17:00,24.4,20.3,29.89,NW,315,5.5,14.0,84,0.00,,,0.00,WUHU21636XXSP,2013-02-12 13:17:00,
2013-02-12 08:22:00,24.4,20.3,29.89,West,270,0.0,18.1,84,0.00,,,0.00,WUHU21636XXSP,2013-02-12 13:22:00,
2013-02-12 08:27:00,24.6,20.1,29.90,NW,315,4.9,18.1,83,0.00,,,0.00,WUHU21636XXSP,2013-02-12 13:27:00,
2013-02-12 08:32:00,24.6,20.1,29.90,WNW,292,3.8,15.4,83,0.00,,,0.00,WUHU21636XXSP,2013-02-12 13:32:00,
2013-02-12 08:37:00,24.6,20.1,29.90,WNW,292,3.3,11.6,83,0.00,,,0.00,WUHU21636XXSP,2013-02-12 13:37:00,
2013-02-12 08:42:00,24.6,20.1,29.90,WNW,292,8.0,8.9,83,0.00,,,0.00,WUHU21636XXSP,2013-02-12 13:42:00,
2013-02-12 08:47:00,24.6,19.9,29.90,NW,315,4.4,11.8,82,0.00,,,0.00,WUHU21636XXSP,2013-02-12 13:47:00,
2013-02-12 08:52:00,24.6,19.9,29.90,WNW,292,1.7,12.9,82,0.00,,,0.00,WUHU21636XXSP,2013-02-12 13:52:00,
2013-02-12 08:57:00,24.8,19.8,29.90,WNW,292,5.1,16.7,81,0.00,,,0.00,WUHU21636XXSP,2013-02-12 13:57:00,
2013-02-12 09:02:00,24.6,19.6,29.90,WNW,292,6.7,16.7,81,0.00,,,0.00,WUHU21636XXSP,2013-02-12 14:02:00,
2013-02-12 09:07:00,24.6,19.9,29.91,WNW,292,8.9,23.2,82,0.00,,,0.00,WUHU21636XXSP,2013-02-12 14:07:00,
2013-02-12 09:12:00,24.6,19.9,29.91,NW,315,8.9,23.2,82,0.00,,,0.00,WUHU21636XXSP,2013-02-12 14:12:00,
2013-02-12 09:17:00,24.6,19.9,29.90,NW,315,9.1,20.1,82,0.00,,,0.00,WUHU21636XXSP,2013-02-12 14:17:00,
2013-02-12 09:22:00,24.6,19.6,29.91,WNW,292,8.5,20.1,81,0.00,,,0.00,WUHU21636XXSP,2013-02-12 14:22:00,
2013-02-12 09:27:00,24.8,19.8,29.91,NW,315,7.3,17.2,81,0.00,,,0.00,WUHU21636XXSP,2013-02-12 14:27:00,
2013-02-12 09:32:00,24.8,19.2,29.91,NW,315,9.3,17.2,79,0.00,,,0.00,WUHU21636XXSP,2013-02-12 14:32:00,
2013-02-12 09:37:00,25.0,18.7,29.91,WNW,292,10.2,17.2,77,0.00,,,0.00,WUHU21636XXSP,2013-02-12 14:37:00,
2013-02-12 09:42:00,25.2,18.9,29.91,NW,315,10.2,19.0,77,0.00,,,0.00,WUHU21636XXSP,2013-02-12 14:42:00,
2013-02-12 09:47:00,25.2,19.2,29.91,NNW,337,6.7,19.0,78,0.00,,,0.00,WUHU21636XXSP,2013-02-12 14:47:00,
2013-02-12 09:52:00,25.2,18.5,29.91,NW,315,13.6,19.0,76,0.00,,,0.00,WUHU21636XXSP,2013-02-12 14:52:00,
2013-02-12 09:57:00,25.2,18.9,29.91,NNW,337,7.1,19.0,77,0.00,,,0.00,WUHU21636XXSP,2013-02-12 14:57:00,
2013-02-12 10:02:00,25.3,19.0,29.91,NW,315,5.3,15.4,77,0.00,,,0.00,WUHU21636XXSP,2013-02-12 15:02:00,
2013-02-12 10:07:00,25.2,18.5,29.91,NNW,337,8.9,15.4,76,0.00,,,0.00,WUHU21636XXSP,2013-02-12 15:07:00,
2013-02-12 10:12:00,25.3,18.7,29.91,NW,315,8.5,15.2,76,0.00,,,0.00,WUHU21636XXSP,2013-02-12 15:12:00,
2013-02-12 10:17:00,25.3,18.7,29.91,NW,315,4.0,15.2,76,0.00,,,0.00,WUHU21636XXSP,2013-02-12 15:17:00,
2013-02-12 10:22:00,25.3,18.7,29.91,NW,315,4.2,10.2,76,0.00,,,0.00,WUHU21636XXSP,2013-02-12 15:22:00,
2013-02-12 10:27:00,25.3,18.7,29.91,NW,315,8.7,11.6,76,0.00,,,0.00,WUHU21636XXSP,2013-02-12 15:27:00,
2013-02-12 10:32:00,25.3,19.0,29.91,NW,315,9.1,16.3,77,0.00,,,0.00,WUHU21636XXSP,2013-02-12 15:32:00,
2013-02-12 10:37:00,25.2,18.9,29.91,WNW,292,7.6,16.3,77,0.00,,,0.00,WUHU21636XXSP,2013-02-12 15:37:00,
2013-02-12 10:42:00,25.2,19.2,29.91,NW,315,8.9,19.4,78,0.00,,,0.00,WUHU21636XXSP,2013-02-12 15:42:00,
2013-02-12 10:47:00,25.0,19.0,29.91,NW,315,2.9,19.4,78,0.00,,,0.00,WUHU21636XXSP,2013-02-12 15:47:00,
2013-02-12 10:52:00,25.0,19.0,29.91,WNW,292,2.0,16.1,79,0.00,,,0.00,WUHU21636XXSP,2013-02-12 15:52:00,
2013-02-12 10:57:00,25.0,19.4,29.91,WNW,292,4.4,4.4,79,0.00,,,0.00,WUHU21636XXSP,2013-02-12 15:57:00,
2013-02-12 11:02:00,25.0,19.6,29.91,NNW,337,9.3,11.1,80,0.00,,,0.00,WUHU21636XXSP,2013-02-12 16:02:00,
2013-02-12 11:07:00,24.8,19.8,29.91,WNW,292,4.9,19.2,81,0.00,,,0.00,WUHU21636XXSP,2013-02-12 16:07:00,
2013-02-12 11:12:00,24.8,20.1,29.91,West,270,3.8,19.2,82,0.00,,,0.00,WUHU21636XXSP,2013-02-12 16:12:00,
2013-02-12 11:17:00,25.0,20.1,29.91,WNW,292,1.5,11.8,82,0.00,,,0.00,WUHU21636XXSP,2013-02-12 16:17:00,
2013-02-12 11:22:00,25.0,20.1,29.91,NW,315,4.2,11.8,82,0.00,,,0.00,WUHU21636XXSP,2013-02-12 16:22:00,
2013-02-12 11:27:00,25.2,20.3,29.91,WNW,292,0.4,4.2,82,0.00,,,0.00,WUHU21636XXSP,2013-02-12 16:27:00,
2013-02-12 11:33:00,25.2,20.3,29.91,West,270,0.0,3.3,83,0.00,,,0.00,WUHU21636XXSP,2013-02-12 16:33:00,
2013-02-12 11:38:00,25.2,20.7,29.91,West,270,1.7,9.6,83,0.00,,,0.00,WUHU21636XXSP,2013-02-12 16:38:00,
2013-02-12 11:43:00,25.3,20.8,29.91,WNW,292,4.4,9.6,83,0.00,,,0.00,WUHU21636XXSP,2013-02-12 16:43:00,
2013-02-12 11:48:00,25.3,20.5,29.91,West,270,0.4,9.8,82,0.00,,,0.00,WUHU21636XXSP,2013-02-12 16:48:00,
2013-02-12 11:54:00,25.7,20.8,29.91,NW,315,12.3,12.7,82,0.00,,,0.00,WUHU21636XXSP,2013-02-12 16:54:00,
2013-02-12 11:59:00,25.7,20.8,29.91,WNW,292,5.3,12.7,82,0.00,,,0.00,WUHU21636XXSP,2013-02-12 16:59:00,
2013-02-12 12:04:00,25.7,20.7,29.91,WNW,292,2.0,10.0,81,0.00,,,0.00,WUHU21636XXSP,2013-02-12 17:04:00,
2013-02-12 12:09:00,25.7,19.9,29.91,WNW,292,5.3,10.0,79,0.00,,,0.00,WUHU21636XXSP,2013-02-12 17:09:00,
2013-02-12 12:14:00,25.7,19.9,29.91,West,270,3.5,8.7,80,0.00,,,0.00,WUHU21636XXSP,2013-02-12 17:14:00,
2013-02-12 12:19:00,25.7,20.3,29.91,WSW,247,3.5,8.7,80,0.00,,,0.00,WUHU21636XXSP,2013-02-12 17:19:00,
2013-02-12 12:24:00,25.7,19.9,29.91,WNW,292,5.8,7.6,79,0.00,,,0.00,WUHU21636XXSP,2013-02-12 17:24:00,
2013-02-12 12:29:00,25.7,19.9,29.90,West,270,0.6,11.6,79,0.00,,,0.00,WUHU21636XXSP,2013-02-12 17:29:00,
2013-02-12 12:34:00,25.5,19.6,29.90,West,270,1.5,19.2,79,0.00,,,0.00,WUHU21636XXSP,2013-02-12 17:34:00,
2013-02-12 12:39:00,25.5,19.8,29.90,West,270,3.3,23.2,79,0.00,,,0.00,WUHU21636XXSP,2013-02-12 17:39:00,
2013-02-12 12:44:00,25.7,19.9,29.90,WNW,292,4.2,23.2,79,0.00,,,0.00,WUHU21636XXSP,2013-02-12 17:44:00,
2013-02-12 12:49:00,25.5,19.6,29.90,NW,315,8.2,15.8,78,0.00,,,0.00,WUHU21636XXSP,2013-02-12 17:49:00,
2013-02-12 12:54:00,25.9,20.1,29.90,NW,315,7.3,12.5,79,0.00,,,0.00,WUHU21636XXSP,2013-02-12 17:54:00,
2013-02-12 13:00:00,25.9,19.6,29.90,WNW,292,4.6,12.3,77,0.00,,,0.00,WUHU21636XXSP,2013-02-12 18:00:00,
2013-02-12 13:05:00,25.9,19.6,29.89,NW,315,7.8,13.6,77,0.00,,,0.00,WUHU21636XXSP,2013-02-12 18:05:00,
2013-02-12 13:10:00,25.9,19.2,29.89,NW,315,8.0,14.7,76,0.00,,,0.00,WUHU21636XXSP,2013-02-12 18:10:00,
2013-02-12 13:15:00,25.7,19.0,29.89,NW,315,6.2,14.7,76,0.00,,,0.00,WUHU21636XXSP,2013-02-12 18:15:00,
2013-02-12 13:20:00,25.7,19.0,29.88,WNW,292,8.0,14.7,76,0.00,,,0.00,WUHU21636XXSP,2013-02-12 18:20:00,
2013-02-12 13:25:00,25.7,19.4,29.88,WSW,247,2.2,22.3,77,0.00,,,0.00,WUHU21636XXSP,2013-02-12 18:25:00,
2013-02-12 13:30:00,25.9,19.6,29.88,NW,315,6.4,22.3,77,0.00,,,0.00,WUHU21636XXSP,2013-02-12 18:30:00,
2013-02-12 13:35:00,25.9,19.6,29.88,West,270,0.0,9.1,77,0.00,,,0.00,WUHU21636XXSP,2013-02-12 18:35:00,
2013-02-12 13:40:00,25.9,19.6,29.88,WSW,247,0.0,9.1,77,0.00,,,0.00,WUHU21636XXSP,2013-02-12 18:40:00,
2013-02-12 13:45:00,26.2,19.9,29.87,West,270,0.0,4.6,77,0.00,,,0.00,WUHU21636XXSP,2013-02-12 18:45:00,
2013-02-12 13:50:00,26.2,20.1,29.87,WSW,247,6.4,8.2,78,0.00,,,0.00,WUHU21636XXSP,2013-02-12 18:50:00,
2013-02-12 13:55:00,26.2,19.9,29.87,WNW,292,2.6,8.5,78,0.00,,,0.00,WUHU21636XXSP,2013-02-12 18:55:00,
2013-02-12 14:00:00,25.9,20.1,29.87,WNW,292,0.4,24.6,79,0.00,,,0.00,WUHU21636XXSP,2013-02-12 19:00:00,
2013-02-12 14:05:00,25.9,20.1,29.87,NW,315,4.6,24.6,79,0.00,,,0.00,WUHU21636XXSP,2013-02-12 19:05:00,
2013-02-12 14:10:00,25.9,20.1,29.87,WNW,292,1.1,4.6,79,0.00,,,0.00,WUHU21636XXSP,2013-02-12 19:10:00,
2013-02-12 14:16:00,25.9,20.1,29.87,WSW,247,3.5,11.4,79,0.00,,,0.00,WUHU21636XXSP,2013-02-12 19:16:00,
2013-02-12 14:21:00,25.9,20.1,29.86,SW,225,4.0,11.4,79,0.00,,,0.00,WUHU21636XXSP,2013-02-12 19:21:00,
2013-02-12 14:25:00,25.9,20.5,29.86,West,270,0.0,8.0,80,0.00,,,0.00,WUHU21636XXSP,2013-02-12 19:25:00,
2013-02-12 14:30:00,25.9,20.7,29.86,West,270,1.5,8.9,81,0.00,,,0.00,WUHU21636XXSP,2013-02-12 19:30:00,
2013-02-12 14:35:00,26.1,20.8,29.86,WNW,292,0.0,8.9,81,0.00,,,0.00,WUHU21636XXSP,2013-02-12 19:35:00,
2013-02-12 14:40:00,26.2,21.0,29.85,West,270,0.0,1.5,81,0.00,,,0.00,WUHU21636XXSP,2013-02-12 19:40:00,
2013-02-12 14:45:00,26.4,21.2,29.85,WSW,247,0.0,3.8,81,0.00,,,0.00,WUHU21636XXSP,2013-02-12 19:45:00,
2013-02-12 14:50:00,26.8,21.6,29.85,SW,225,0.0,3.8,81,0.00,,,0.00,WUHU21636XXSP,2013-02-12 19:50:00,
2013-02-12 14:55:00,26.4,21.0,29.85,SW,225,6.7,12.0,80,0.00,,,0.00,WUHU21636XXSP,2013-02-12 19:55:00,
2013-02-12 15:00:00,26.4,21.2,29.85,WSW,247,0.0,12.0,81,0.00,,,0.00,WUHU21636XXSP,2013-02-12 20:00:00,
2013-02-12 15:05:00,26.2,21.0,29.85,SW,225,0.0,7.3,81,0.00,,,0.00,WUHU21636XXSP,2013-02-12 20:05:00,
2013-02-12 15:11:00,26.2,21.4,29.84,SSW,202,0.0,4.2,82,0.00,,,0.00,WUHU21636XXSP,2013-02-12 20:11:00,
2013-02-12 15:16:00,26.2,21.4,29.84,WSW,247,0.0,4.2,82,0.00,,,0.00,WUHU21636XXSP,2013-02-12 20:16:00,
2013-02-12 15:21:00,26.2,21.4,29.84,WNW,292,0.0,0.0,82,0.00,,,0.00,WUHU21636XXSP,2013-02-12 20:21:00,
2013-02-12 15:26:00,26.2,21.4,29.84,West,270,0.0,0.0,83,0.00,,,0.00,WUHU21636XXSP,2013-02-12 20:26:00,
2013-02-12 15:31:00,25.9,21.4,29.84,NW,315,6.2,6.7,83,0.00,,,0.00,WUHU21636XXSP,2013-02-12 20:31:00,
2013-02-12 15:36:00,25.7,21.2,29.84,WNW,292,4.9,8.7,83,0.00,,,0.00,WUHU21636XXSP,2013-02-12 20:36:00,
2013-02-12 15:41:00,25.7,21.4,29.84,WNW,292,0.0,10.7,84,0.00,,,0.00,WUHU21636XXSP,2013-02-12 20:41:00,
2013-02-12 15:46:00,25.9,21.6,29.84,WNW,292,2.9,4.2,84,0.00,,,0.00,WUHU21636XXSP,2013-02-12 20:46:00,
2013-02-12 15:51:00,25.9,21.6,29.83,NW,315,5.1,5.8,84,0.00,,,0.00,WUHU21636XXSP,2013-02-12 20:51:00,
2013-02-12 15:56:00,25.9,21.6,29.84,NNW,337,4.9,5.8,84,0.00,,,0.00,WUHU21636XXSP,2013-02-12 20:56:00,
2013-02-12 16:01:00,25.9,21.6,29.84,WNW,292,0.6,12.7,84,0.00,,,0.00,WUHU21636XXSP,2013-02-12 21:01:00,
2013-02-12 16:06:00,25.9,21.6,29.83,NW,315,3.1,12.7,84,0.00,,,0.00,WUHU21636XXSP,2013-02-12 21:06:00,
2013-02-12 16:12:00,25.7,21.4,29.83,NW,315,1.5,3.1,84,0.00,,,0.00,WUHU21636XXSP,2013-02-12 21:12:00,
2013-02-12 16:17:00,25.7,21.4,29.83,NW,315,0.0,3.1,84,0.00,,,0.00,WUHU21636XXSP,2013-02-12 21:17:00,
2013-02-12 16:22:00,25.7,21.4,29.83,NW,315,4.4,4.4,84,0.00,,,0.00,WUHU21636XXSP,2013-02-12 21:22:00,
2013-02-12 16:27:00,25.7,21.4,29.83,West,270,0.0,4.4,84,0.00,,,0.00,WUHU21636XXSP,2013-02-12 21:27:00,
2013-02-12 16:33:00,25.7,21.4,29.83,WSW,247,0.0,1.1,84,0.00,,,0.00,WUHU21636XXSP,2013-02-12 21:33:00,
2013-02-12 16:38:00,25.7,21.4,29.83,WSW,247,2.9,2.9,84,0.00,,,0.00,WUHU21636XXSP,2013-02-12 21:38:00,
2013-02-12 16:43:00,25.7,21.4,29.83,WSW,247,0.0,2.9,84,0.00,,,0.00,WUHU21636XXSP,2013-02-12 21:43:00,
2013-02-12 16:48:00,25.7,21.4,29.83,West,270,0.8,2.9,84,0.00,,,0.00,WUHU21636XXSP,2013-02-12 21:48:00,
2013-02-12 16:53:00,25.7,21.4,29.84,WSW,247,0.6,2.2,84,0.00,,,0.00,WUHU21636XXSP,2013-02-12 21:53:00,
2013-02-12 16:58:00,25.5,21.2,29.84,WSW,247,0.8,1.7,84,0.00,,,0.00,WUHU21636XXSP,2013-02-12 21:58:00,
2013-02-12 17:03:00,25.5,21.2,29.83,SW,225,0.0,3.5,84,0.00,,,0.00,WUHU21636XXSP,2013-02-12 22:03:00,
2013-02-12 17:08:00,25.7,21.4,29.84,SW,225,5.1,10.9,84,0.00,,,0.00,WUHU21636XXSP,2013-02-12 22:08:00,
2013-02-12 17:13:00,25.7,21.4,29.84,SW,225,1.3,11.8,84,0.00,,,0.00,WUHU21636XXSP,2013-02-12 22:13:00,
2013-02-12 17:18:00,25.7,20.7,29.83,West,270,5.3,13.1,81,0.00,,,0.00,WUHU21636XXSP,2013-02-12 22:18:00,
2013-02-12 17:23:00,25.7,20.3,29.83,WSW,247,5.5,18.3,80,0.00,,,0.00,WUHU21636XXSP,2013-02-12 22:23:00,
2013-02-12 17:28:00,25.7,20.3,29.83,WSW,247,5.5,18.3,80,0.00,,,0.00,WUHU21636XXSP,2013-02-12 22:28:00,
2013-02-12 17:33:00,25.7,19.9,29.84,West,270,2.2,16.1,79,0.00,,,0.00,WUHU21636XXSP,2013-02-12 22:33:00,
2013-02-12 17:38:00,25.7,19.9,29.84,SW,225,4.2,16.1,79,0.00,,,0.00,WUHU21636XXSP,2013-02-12 22:38:00,
2013-02-12 17:43:00,25.7,19.9,29.84,WNW,292,2.2,14.3,79,0.00,,,0.00,WUHU21636XXSP,2013-02-12 22:43:00,
2013-02-12 17:48:00,25.5,19.8,29.84,WSW,247,7.1,14.5,79,0.00,,,0.00,WUHU21636XXSP,2013-02-12 22:48:00,
2013-02-12 17:53:00,25.3,19.9,29.85,WSW,247,2.2,14.5,80,0.00,,,0.00,WUHU21636XXSP,2013-02-12 22:53:00,
2013-02-12 17:58:00,25.3,19.9,29.85,West,270,1.7,13.4,80,0.00,,,0.00,WUHU21636XXSP,2013-02-12 22:58:00,
2013-02-12 18:03:00,25.3,19.9,29.85,West,270,3.1,13.4,80,0.00,,,0.00,WUHU21636XXSP,2013-02-12 23:03:00,
2013-02-12 18:08:00,25.0,19.6,29.85,West,270,3.1,24.6,80,0.00,,,0.00,WUHU21636XXSP,2013-02-12 23:08:00,
2013-02-12 18:13:00,24.8,19.6,29.86,WNW,292,3.1,24.6,80,0.00,,,0.00,WUHU21636XXSP,2013-02-12 23:13:00,
2013-02-12 18:18:00,24.6,19.6,29.86,SW,225,7.3,17.8,81,0.00,,,0.00,WUHU21636XXSP,2013-02-12 23:18:00,
2013-02-12 18:23:00,24.4,19.4,29.86,WSW,247,3.1,33.7,81,0.00,,,0.00,WUHU21636XXSP,2013-02-12 23:23:00,
2013-02-12 18:28:00,24.4,19.4,29.86,WSW,247,0.0,33.7,81,0.00,,,0.00,WUHU21636XXSP,2013-02-12 23:28:00,
2013-02-12 18:33:00,24.4,19.4,29.86,WSW,247,4.6,12.3,81,0.00,,,0.00,WUHU21636XXSP,2013-02-12 23:33:00,
2013-02-12 18:38:00,24.4,19.4,29.86,SW,225,6.4,7.3,81,0.00,,,0.00,WUHU21636XXSP,2013-02-12 23:38:00,
2013-02-12 18:43:00,24.3,19.2,29.86,WSW,247,3.8,19.0,81,0.00,,,0.00,WUHU21636XXSP,2013-02-12 23:43:00,
2013-02-12 18:48:00,24.1,19.4,29.85,SSW,202,2.4,19.0,82,0.00,,,0.00,WUHU21636XXSP,2013-02-12 23:48:00,
2013-02-12 18:53:00,24.3,19.6,29.86,West,270,2.0,16.7,82,0.00,,,0.00,WUHU21636XXSP,2013-02-12 23:53:00,
2013-02-12 18:58:00,24.1,19.0,29.86,WSW,247,1.7,13.4,81,0.00,,,0.00,WUHU21636XXSP,2013-02-12 23:58:00,
2013-02-12 19:03:00,24.1,19.0,29.86,WSW,247,0.0,13.4,82,0.00,,,0.00,WUHU21636XXSP,2013-02-13 00:03:00,
2013-02-12 19:08:00,24.1,19.0,29.86,WSW,247,3.1,13.4,82,0.00,,,0.00,WUHU21636XXSP,2013-02-13 00:08:00,
2013-02-12 19:13:00,23.9,19.2,29.85,SW,225,0.0,3.3,82,0.00,,,0.00,WUHU21636XXSP,2013-02-13 00:13:00,
2013-02-12 19:18:00,23.9,19.2,29.85,WSW,247,0.0,2.2,83,0.00,,,0.00,WUHU21636XXSP,2013-02-13 00:18:00,
2013-02-12 19:23:00,23.9,19.2,29.85,SSW,202,1.7,1.7,83,0.00,,,0.00,WUHU21636XXSP,2013-02-13 00:23:00,
2013-02-12 19:28:00,23.9,19.2,29.85,SW,225,1.3,1.7,83,0.00,,,0.00,WUHU21636XXSP,2013-02-13 00:28:00,
2013-02-12 19:33:00,23.9,19.4,29.85,SW,225,4.0,4.0,83,0.00,,,0.00,WUHU21636XXSP,2013-02-13 00:33:00,
2013-02-12 19:38:00,23.9,19.4,29.85,WSW,247,5.3,9.6,83,0.00,,,0.00,WUHU21636XXSP,2013-02-13 00:38:00,
2013-02-12 19:43:00,23.9,19.4,29.85,South,180,4.2,9.6,83,0.00,,,0.00,WUHU21636XXSP,2013-02-13 00:43:00,
2013-02-12 19:48:00,23.9,19.2,29.84,WSW,247,0.0,5.3,82,0.00,,,0.00,WUHU21636XXSP,2013-02-13 00:48:00,
2013-02-12 19:53:00,23.9,19.2,29.84,West,270,0.0,8.5,82,0.00,,,0.00,WUHU21636XXSP,2013-02-13 00:53:00,
2013-02-12 19:58:00,24.1,19.4,29.84,SW,225,3.3,8.5,82,0.00,,,0.00,WUHU21636XXSP,2013-02-13 00:58:00,
2013-02-12 20:03:00,24.1,19.4,29.84,SW,225,6.4,21.9,82,0.00,,,0.00,WUHU21636XXSP,2013-02-13 01:03:00,
2013-02-12 20:08:00,24.1,19.4,29.84,WSW,247,2.6,21.9,82,0.00,,,0.00,WUHU21636XXSP,2013-02-13 01:08:00,
2013-02-12 20:13:00,23.9,19.2,29.85,West,270,0.0,8.0,82,0.00,,,0.00,WUHU21636XXSP,2013-02-13 01:13:00,
2013-02-12 20:18:00,23.9,19.2,29.85,WSW,247,1.5,2.6,82,0.00,,,0.00,WUHU21636XXSP,2013-02-13 01:18:00,
2013-02-12 20:23:00,24.1,19.0,29.84,SW,225,4.6,4.6,81,0.00,,,0.00,WUHU21636XXSP,2013-02-13 01:23:00,
2013-02-12 20:29:00,24.1,18.9,29.84,WSW,247,2.4,4.6,80,0.00,,,0.00,WUHU21636XXSP,2013-02-13 01:29:00,
2013-02-12 20:34:00,24.1,18.9,29.84,SSW,202,0.8,10.5,80,0.00,,,0.00,WUHU21636XXSP,2013-02-13 01:34:00,
2013-02-12 20:39:00,24.1,18.9,29.84,WSW,247,3.8,10.5,80,0.00,,,0.00,WUHU21636XXSP,2013-02-13 01:39:00,
2013-02-12 20:44:00,24.1,18.5,29.84,WSW,247,2.4,10.2,79,0.00,,,0.00,WUHU21636XXSP,2013-02-13 01:44:00,
2013-02-12 20:49:00,24.1,18.5,29.84,South,180,3.8,10.2,79,0.00,,,0.00,WUHU21636XXSP,2013-02-13 01:49:00,
2013-02-12 20:54:00,24.1,18.1,29.84,SW,225,6.9,17.2,78,0.00,,,0.00,WUHU21636XXSP,2013-02-13 01:54:00,
2013-02-12 20:59:00,24.1,18.1,29.84,WSW,247,2.9,17.2,78,0.00,,,0.00,WUHU21636XXSP,2013-02-13 01:59:00,
2013-02-12 21:04:00,24.1,18.1,29.84,SW,225,0.0,16.5,78,0.00,,,0.00,WUHU21636XXSP,2013-02-13 02:04:00,
2013-02-12 21:09:00,24.1,18.1,29.84,WSW,247,0.0,3.1,78,0.00,,,0.00,WUHU21636XXSP,2013-02-13 02:09:00,
2013-02-12 21:14:00,24.3,18.3,29.83,WSW,247,1.7,16.5,78,0.00,,,0.00,WUHU21636XXSP,2013-02-13 02:14:00,
2013-02-12 21:19:00,24.1,18.1,29.83,SW,225,3.1,16.5,78,0.00,,,0.00,WUHU21636XXSP,2013-02-13 02:19:00,
2013-02-12 21:24:00,24.3,18.0,29.83,SW,225,4.4,5.1,77,0.00,,,0.00,WUHU21636XXSP,2013-02-13 02:24:00,
2013-02-12 21:29:00,24.1,17.8,29.83,SW,225,3.3,4.4,77,0.00,,,0.00,WUHU21636XXSP,2013-02-13 02:29:00,
2013-02-12 21:34:00,24.3,18.3,29.83,SW,225,2.4,4.4,77,0.00,,,0.00,WUHU21636XXSP,2013-02-13 02:34:00,
2013-02-12 21:39:00,24.1,18.1,29.83,SSW,202,6.0,10.2,78,0.00,,,0.00,WUHU21636XXSP,2013-02-13 02:39:00,
2013-02-12 21:44:00,24.3,18.0,29.82,SW,225,0.8,13.1,77,0.00,,,0.00,WUHU21636XXSP,2013-02-13 02:44:00,
2013-02-12 21:49:00,24.3,18.3,29.82,SSW,202,3.5,13.1,78,0.00,,,0.00,WUHU21636XXSP,2013-02-13 02:49:00,
2013-02-12 21:54:00,24.1,17.8,29.82,South,180,6.9,12.9,77,0.00,,,0.00,WUHU21636XXSP,2013-02-13 02:54:00,
2013-02-12 21:59:00,24.1,18.1,29.82,SSW,202,0.0,9.1,78,0.00,,,0.00,WUHU21636XXSP,2013-02-13 02:59:00,
2013-02-12 22:04:00,24.1,18.1,29.82,South,180,2.9,9.1,78,0.00,,,0.00,WUHU21636XXSP,2013-02-13 03:04:00,
2013-02-12 22:09:00,24.1,18.5,29.82,SSW,202,5.3,6.4,79,0.00,,,0.00,WUHU21636XXSP,2013-02-13 03:09:00,
2013-02-12 22:14:00,24.1,18.1,29.82,South,180,3.3,7.8,78,0.00,,,0.00,WUHU21636XXSP,2013-02-13 03:14:00,
2013-02-12 22:19:00,24.1,18.1,29.82,SSW,202,0.0,7.8,78,0.00,,,0.00,WUHU21636XXSP,2013-02-13 03:19:00,
2013-02-12 22:24:00,24.1,18.5,29.82,South,180,2.0,6.2,79,0.00,,,0.00,WUHU21636XXSP,2013-02-13 03:24:00,
2013-02-12 22:29:00,23.9,18.3,29.82,SSE,157,5.1,6.2,79,0.00,,,0.00,WUHU21636XXSP,2013-02-13 03:29:00,
2013-02-12 22:34:00,23.9,18.3,29.82,SSE,157,3.3,5.1,79,0.00,,,0.00,WUHU21636XXSP,2013-02-13 03:34:00,
2013-02-12 22:39:00,23.9,18.7,29.81,South,180,2.2,9.8,80,0.00,,,0.00,WUHU21636XXSP,2013-02-13 03:39:00,
2013-02-12 22:44:00,23.9,18.7,29.81,South,180,4.9,9.8,80,0.00,,,0.00,WUHU21636XXSP,2013-02-13 03:44:00,
2013-02-12 22:49:00,23.9,18.7,29.81,South,180,4.0,13.1,80,0.00,,,0.00,WUHU21636XXSP,2013-02-13 03:49:00,
2013-02-12 22:54:00,23.9,18.7,29.81,South,180,0.0,13.1,80,0.00,,,0.00,WUHU21636XXSP,2013-02-13 03:54:00,
2013-02-12 22:59:00,23.7,18.5,29.81,SSW,202,3.1,9.6,80,0.00,,,0.00,WUHU21636XXSP,2013-02-13 03:59:00,
2013-02-12 23:04:00,23.7,18.5,29.81,SSW,202,0.6,4.9,80,0.00,,,0.00,WUHU21636XXSP,2013-02-13 04:04:00,
2013-02-12 23:09:00,23.7,18.5,29.81,SSW,202,4.0,9.6,80,0.00,,,0.00,WUHU21636XXSP,2013-02-13 04:09:00,
2013-02-12 23:14:00,23.7,18.5,29.81,SSW,202,4.4,9.6,80,0.00,,,0.00,WUHU21636XXSP,2013-02-13 04:14:00,
2013-02-12 23:19:00,23.7,18.5,29.81,SW,225,2.4,15.4,80,0.00,,,0.00,WUHU21636XXSP,2013-02-13 04:19:00,
2013-02-12 23:24:00,23.7,18.5,29.80,SSW,202,5.8,15.4,80,0.00,,,0.00,WUHU21636XXSP,2013-02-13 04:24:00,
2013-02-12 23:29:00,23.7,18.5,29.80,SW,225,2.0,8.2,80,0.00,,,0.00,WUHU21636XXSP,2013-02-13 04:29:00,
2013-02-12 23:34:00,23.7,18.5,29.80,SW,225,1.3,8.2,80,0.00,,,0.00,WUHU21636XXSP,2013-02-13 04:34:00,
2013-02-12 23:39:00,23.7,18.5,29.80,SSW,202,3.5,8.2,80,0.00,,,0.00,WUHU21636XXSP,2013-02-13 04:39:00,
2013-02-12 23:46:00,23.7,18.5,29.80,SSW,202,2.4,6.7,80,0.00,,,0.00,WUHU21636XXSP,2013-02-13 04:46:00,
2013-02-12 23:55:00,23.7,18.7,29.80,South,180,4.0,6.9,81,0.00,,,0.00,WUHU21636XXSP,2013-02-13 04:55:00,